Regional Weather Roundup
Issued by NWS Little Rock, AR

Home | Current Version | Previous Version | Graphics & Text | Print | Product List | Glossary On
Versions: 1 2 3 4 5 6 7 8 9 10 11 12 13 14 15 16 17 18 19 20 21 22 23 24 25 26 27 28 29 30 31 32 33 34 35 36 37 38 39 40 41 42 43 44 45 46 47 48 49 50
000
ASUS44 KLZK 201105
RWRLZK

WEATHER ROUNDUP FOR ARKANSAS
NATIONAL WEATHER SERVICE LITTLE ROCK AR
500 AM CST MON NOV 20 2017

NOTE: "FAIR" INDICATES FEW OR NO CLOUDS BELOW 12,000 FEET WITH NO
SIGNIFICANT WEATHER AND/OR OBSTRUCTIONS TO VISIBILITY.

ARZ001-003-010-029-201200-
NORTHWEST ARKANSAS

CITY           SKY/WX    TMP DP  RH WIND       PRES   REMARKS
FAYETTEVILLE   CLOUDY    27  27 100 CALM      30.15F
FORT SMITH     CLOUDY    35  32  88 NE3       30.18F
HARRISON       CLOUDY    32  26  78 SE7       30.15F WCI  26
BENTONVILLE    CLOUDY    36  26  67 S7        30.15F
ROGERS         PTCLDY    35  27  72 SE5       30.14F WCI  31
SILOAM SPGS    CLOUDY    38  26  62 S7        30.14F
HIGHFILL       CLOUDY    36  26  67 S6        30.13F
$$

ARZ004-005-016-201200-
NORTH CENTRAL ARKANSAS

CITY           SKY/WX    TMP DP  RH WIND       PRES   REMARKS
BATESVILLE     CLOUDY    28  25  88 CALM      30.22S
FLIPPIN        PTCLDY    26  25  96 E5        30.18F WCI  20
MTN HOME       CLOUDY    32  25  75 S5        30.16F WCI  27
$$

ARZ040-041-201200-
WEST CENTRAL ARKANSAS

CITY           SKY/WX    TMP DP  RH WIND       PRES   REMARKS
MENA           CLOUDY    32  32 100 CALM      30.19F
MOUNT IDA      CLOUDY    29  27  92 CALM      30.18F
$$

ARZ009-017-025-026-028-201200-
NORTHEAST ARKANSAS

CITY           SKY/WX    TMP DP  RH WIND       PRES   REMARKS
CORNING        FAIR      30  28  93 CALM      30.22F
JONESBORO      CLEAR     28  26  92 NE3       30.23F
NEWPORT        CLOUDY    30  28  92 S6        30.24S WCI  24
WALNUT RIDGE     N/A     30  26  85 CALM      30.23S
BLYTHEVILLE    CLEAR     32  28  85 S3        30.25S
$$

ARZ022-023-033-042-044-201200-
CENTRAL ARKANSAS

CITY           SKY/WX    TMP DP  RH WIND       PRES   REMARKS
LITTLE ROCK    PTCLDY    31  31 100 SW3       30.24R
N LITTLE ROCK    N/A     40  27  60 S3        30.25S
JACKSONVILLE   CLOUDY    28  24  87 CALM      30.22S
SEARCY         CLOUDY    26  26 100 CALM      30.25R
HOT SPRINGS    CLOUDY    31  30  96 CALM      30.22S
RUSSELLVILLE   CLOUDY    29  28  96 CALM      30.21R
CLINTON        FAIR      27  25  93 CALM      30.23S
$$

ARZ036-201200-
EAST ARKANSAS

CITY           SKY/WX    TMP DP  RH WIND       PRES   REMARKS
WEST MEMPHIS   CLEAR     28  28 100 CALM      30.24S
$$

ARZ050-053-066-070-073-201200-
SOUTHWEST ARKANSAS

CITY           SKY/WX    TMP DP  RH WIND       PRES   REMARKS
ARKADELPHIA    FAIR      27  24  89 CALM      30.24S
CAMDEN         CLOUDY    28  27  93 CALM      30.24R
TEXARKANA      CLOUDY    37  34  89 CALM      30.21S
EL DORADO      CLEAR     31  31 100 CALM      30.24S
DE QUEEN       CLOUDY    30  30 100 CALM      30.20S
$$

ARZ056-057-069-201200-
SOUTHEAST ARKANSAS

CITY           SKY/WX    TMP DP  RH WIND       PRES   REMARKS
PINE BLUFF     CLOUDY    27  25  92 CALM      30.24S
STUTTGART      CLEAR     37  30  75 S6        30.25R
MONTICELLO     CLOUDY    32  27  81 SE3       30.25R

$$





USA.gov is the U.S. government's official web portal to all federal, state and local government web resources and services.